Wind_Speed
10 11 12 12 13 13 12 11 11 10 10 11 11 10 9 9 9 10 12 13 15 17 19 20 20 20 20 20 20 19 19 20 20 20 20 20 18 19 19 18 18 19 18 18 19 19 18 17 17 17 17 16 15 16 16 15 15 14 13 12 12 11 10 9 9 8 7 6 6 6 7 7 6 5 6 7 7 7 7 7 7 7 6 5 4
9 11 13 12 13 13 13 11 10 10 10 10 10 10 10 10 10 10 11 13 14 15 18 19 20 20 20 20 20 19 19 20 21 21 21 21 20 19 19 19 19 19 19 18 18 19 18 17 17 16 16 16 16 16 16 16 15 14 14 13 12 12 11 10 9 8 7 6 6 7 8 8 7 6 6 6 7 7 7 7 7 6 6 4 4
9 10 12 13 13 13 13 11 10 9 10 11 11 11 10 10 11 11 12 13 14 15 16 18 19 19 20 21 20 20 20 20 20 21 22 22 21 19 20 21 20 19 19 18 18 19 19 18 17 17 16 16 16 16 16 16 16 15 14 14 13 13 12 11 9 9 8 7 7 7 8 8 7 6 6 6 7 7 7 7 6 6 5 5 4
9 11 12 12 13 13 12 11 9 9 10 12 13 13 12 11 11 12 13 13 14 14 15 16 17 18 18 20 20 20 20 20 20 20 21 23 23 20 19 21 21 19 19 18 17 18 19 18 17 17 17 16 16 17 17 16 17 16 15 14 14 14 13 12 10 9 9 8 7 8 8 8 7 6 6 6 6 7 7 6 6 5 5 5 4
10 12 12 12 13 13 12 10 10 9 11 13 14 15 14 13 12 12 13 13 13 14 14 15 16 16 18 18 19 20 21 21 20 20 20 22 23 22 19 20 21 20 19 17 16 17 19 19 18 17 17 16 16 17 17 17 17 17 15 14 14 14 14 13 12 11 10 9 8 8 8 8 8 7 6 6 6 7 7 6 6 5 5 5 5
11 12 12 12 13 13 12 12 11 11 12 14 16 16 15 14 13 12 12 12 13 13 14 15 15 16 18 18 18 19 21 21 21 21 20 21 22 23 22 20 19 20 19 17 16 16 18 19 18 18 17 17 17 16 17 17 18 17 16 15 14 14 15 14 13 12 11 10 9 8 8 9 8 7 7 6 6 6 7 7 6 6 6 5 5
10 12 12 12 12 13 13 12 13 13 14 15 16 16 16 15 14 13 12 12 13 14 15 16 16 17 17 17 17 18 19 21 21 21 21 21 21 22 23 22 20 19 19 18 17 16 16 18 19 18 18 18 19 18 17 17 18 18 17 16 15 15 15 15 15 13 12 11 10 9 9 9 8 8 7 6 5 6 7 7 7 6 6 6 6
10 11 11 12 12 13 13 13 13 14 15 16 17 17 16 15 15 14 13 12 13 14 15 16 16 17 17 17 17 17 18 19 19 20 21 22 22 22 22 22 21 21 20 19 18 17 16 17 18 19 19 19 20 20 19 18 18 18 18 17 17 16 15 16 16 15 13 12 11 10 9 9 9 8 7 6 6 6 7 7 8 7 6 6 6
10 11 11 12 12 13 13 13 14 15 15 16 17 17 16 15 15 14 13 13 13 14 15 15 15 16 16 16 16 15 17 17 18 19 20 21 22 22 22 22 22 22 21 20 19 19 18 17 17 19 20 20 20 20 20 20 19 18 19 19 18 17 16 16 17 16 14 14 13 11 10 10 9 9 8 7 6 6 7 7 8 8 7 6 6
11 11 12 12 13 13 13 14 14 15 16 16 17 18 17 16 14 14 13 13 14 14 15 15 15 16 16 16 15 15 15 16 16 18 19 21 21 22 22 23 22 22 22 21 20 20 20 19 18 19 21 22 21 21 21 21 21 20 20 20 20 18 17 17 18 17 16 15 14 13 11 10 10 10 9 8 7 6 7 8 8 8 8 7 7
12 12 12 13 14 14 14 15 15 16 17 17 17 18 17 16 15 13 13 13 14 15 16 16 16 17 17 16 15 15 15 15 16 17 18 20 21 21 22 23 23 22 22 22 21 20 20 20 21 20 20 22 23 23 23 23 23 23 22 22 21 20 19 18 18 19 17 16 15 14 13 12 10 10 10 9 8 7 7 8 8 8 8 8 7
12 12 13 13 14 14 15 15 15 16 17 17 17 17 17 16 15 14 13 13 14 15 16 17 17 17 18 17 16 15 15 15 15 16 18 19 20 21 22 22 22 22 22 22 22 22 20 19 21 22 22 22 23 24 25 25 25 25 24 23 22 21 20 19 19 19 19 17 16 15 14 13 12 11 11 10 9 8 8 8 8 9 9 9 8
12 12 13 13 14 14 15 15 15 15 16 16 16 16 16 16 15 14 13 14 14 15 16 17 18 18 18 17 16 16 15 15 15 16 17 18 19 20 21 22 22 22 22 22 23 23 22 20 21 22 23 23 23 24 25 26 27 27 26 25 24 23 21 21 20 19 20 19 17 16 16 15 13 12 12 11 10 9 9 9 9 9 9 9 9
12 13 13 13 14 14 15 15 15 15 15 16 16 17 17 17 16 15 14 14 15 15 16 17 18 19 19 18 17 16 15 15 16 16 16 17 18 19 20 21 22 23 23 23 23 24 24 23 22 22 23 23 24 25 26 26 27 28 28 26 25 25 23 22 21 21 20 20 19 17 17 16 15 14 13 13 11 10 10 10 9 9 10 10 10
12 13 13 14 14 14 15 15 16 16 16 17 18 18 18 17 16 15 15 15 15 16 16 18 18 19 19 19 18 17 16 16 16 16 16 17 18 18 19 20 21 22 23 23 23 24 24 25 25 24 24 24 24 25 26 27 27 28 28 28 26 26 25 24 23 22 22 21 21 19 18 17 17 15 14 14 13 11 11 11 10 10 10 11 11
13 13 14 14 14 14 14 15 16 17 17 18 19 19 18 18 17 16 16 16 17 17 17 18 19 19 19 19 19 19 18 17 17 17 18 18 19 19 20 20 21 22 22 23 23 24 24 25 26 26 25 25 25 25 26 27 28 28 28 28 29 27 26 26 24 23 23 22 22 21 19 19 18 17 15 15 14 13 12 12 11 11 11 11 12
14 14 14 14 14 15 15 15 16 17 18 18 19 19 19 18 18 18 18 18 18 19 19 19 20 20 20 20 19 19 19 19 19 19 19 19 20 21 21 22 23 23 23 23 24 24 25 24 25 26 27 26 26 26 26 26 27 29 29 28 29 29 28 27 26 24 23 23 23 23 21 20 19 18 17 16 15 14 13 13 12 12 12 12 12
15 15 15 15 15 16 16 16 16 17 18 18 19 19 19 19 19 19 19 19 20 21 20 20 21 21 21 21 20 20 20 20 20 21 21 21 21 22 23 23 24 25 24 24 24 25 25 25 24 25 27 27 27 27 27 27 27 28 29 29 28 30 30 29 28 26 25 24 24 24 23 21 20 20 19 18 16 15 14 14 13 13 12 12 13
17 17 16 16 16 16 16 16 16 17 18 18 19 19 19 19 19 20 20 21 21 22 23 22 22 22 22 22 22 21 21 21 21 21 22 23 23 23 23 23 24 26 26 26 26 26 26 26 25 25 26 27 27 27 28 29 27 27 29 30 29 29 30 31 30 28 26 26 24 24 24 22 21 21 20 19 18 17 16 15 14 14 13 13 13
18 18 18 18 18 17 17 17 17 18 18 18 19 19 20 20 20 21 22 22 23 24 24 24 24 24 24 24 24 23 23 23 22 22 22 22 23 24 24 24 25 26 27 27 27 28 28 28 28 27 26 27 28 28 28 28 28 28 28 30 30 30 29 30 31 30 27 27 25 25 25 24 22 22 22 21 19 18 17 16 15 15 15 14 13
19 19 19 18 18 18 17 17 17 18 18 19 19 20 20 21 21 22 22 23 24 25 25 25 25 26 26 26 25 25 25 25 24 24 24 23 23 24 25 25 26 27 27 28 29 29 29 30 30 29 28 28 29 29 28 28 28 28 28 29 31 31 30 29 31 30 28 27 26 25 26 25 24 23 23 22 21 20 19 18 17 16 16 15 14
20 20 19 19 19 19 19 18 18 18 18 19 20 20 21 22 22 23 23 24 25 25 25 26 26 26 27 27 27 27 27 26 26 26 25 25 24 24 25 26 27 28 29 28 29 29 30 31 32 31 31 30 30 30 30 28 27 27 28 29 30 31 30 29 30 30 30 29 28 27 27 26 26 25 25 24 23 22 21 19 18 17 17 17 15
21 21 20 20 19 19 20 20 19 19 19 20 20 21 22 22 23 24 24 25 25 25 26 26 27 27 27 28 27 28 28 28 28 28 27 27 27 26 26 27 27 28 30 30 29 30 30 31 33 32 31 31 31 31 29 27 27 27 28 29 30 30 30 29 29 30 31 32 31 29 28 27 27 27 26 26 24 23 22 21 20 19 19 18 17
21 21 20 20 20 20 20 20 20 20 20 20 21 22 22 23 24 24 25 25 26 26 26 27 27 27 27 28 28 28 29 29 29 29 29 29 29 28 28 29 28 28 31 31 31 31 31 32 33 33 32 32 33 32 29 27 27 27 28 29 30 30 30 28 29 30 32 34 33 31 28 27 28 29 28 27 26 25 24 22 21 21 20 20 19
21 21 20 21 21 21 21 21 21 21 21 21 22 22 22 23 24 25 25 26 26 27 27 28 28 28 28 28 28 29 29 30 29 30 30 30 30 30 30 30 30 30 31 32 32 32 33 32 33 34 33 33 33 33 31 29 27 27 28 29 30 30 29 28 28 29 31 32 32 32 30 29 29 30 30 29 27 26 25 24 23 22 22 21 20
21 21 21 21 21 22 22 22 22 22 22 23 23 23 24 24 24 25 25 26 27 27 28 29 29 30 30 29 29 30 30 30 30 30 31 32 32 32 32 32 32 32 31 32 33 33 34 34 34 34 34 33 33 33 32 31 29 28 28 29 29 30 29 29 28 28 30 31 33 34 34 32 31 32 31 30 28 27 27 26 24 24 24 23 22
21 21 21 22 22 23 23 23 23 24 24 25 25 26 26 26 26 26 27 27 27 28 29 29 30 30 31 31 31 31 32 32 32 32 33 34 34 34 34 34 33 33 33 33 33 34 35 35 34 35 34 34 34 34 33 32 29 28 28 29 30 31 31 29 28 29 30 31 33 36 38 36 35 33 33 31 30 29 28 27 26 25 25 25 24
21 21 22 23 24 24 25 25 25 26 26 27 27 28 28 28 29 29 29 29 29 29 30 30 30 31 31 32 33 33 33 34 34 34 35 36 36 36 36 36 35 34 34 33 33 34 35 35 35 36 35 34 34 35 34 31 30 29 30 31 31 32 32 31 29 30 30 30 31 34 37 39 39 37 34 33 33 32 30 29 28 27 26 26 26
21 22 23 24 25 26 26 27 27 28 28 29 29 29 30 30 30 31 31 31 31 31 31 31 31 32 32 33 34 34 34 35 35 35 36 36 37 37 36 37 37 35 34 34 32 34 36 35 35 36 36 36 35 35 33 31 32 31 30 32 32 32 33 32 31 31 30 31 32 33 34 38 41 41 37 35 35 34 32 32 31 29 28 27 27
22 23 24 25 26 27 28 28 28 29 29 30 30 31 31 31 32 32 32 33 33 33 33 33 33 33 33 34 35 35 35 35 35 35 36 36 36 36 36 36 37 36 35 35 32 33 36 36 35 36 37 38 37 35 34 33 33 32 31 32 33 33 34 34 34 32 31 33 35 35 35 37 41 43 39 35 35 35 34 33 32 31 30 28 28
23 24 25 26 27 28 28 29 29 29 30 30 31 31 32 32 33 33 34 34 34 34 34 35 35 35 35 35 36 36 36 36 36 36 36 36 35 35 36 36 37 36 36 36 34 33 36 37 35 36 37 38 38 37 36 35 33 32 33 34 34 34 34 36 35 33 31 33 36 37 37 39 42 42 39 36 36 36 35 34 33 32 31 30 29
24 25 27 27 28 28 29 29 29 30 30 30 31 32 33 33 34 34 34 35 35 35 35 36 36 36 37 37 37 37 37 37 37 37 37 37 37 36 36 36 38 38 38 38 36 33 36 38 36 36 38 38 38 38 38 36 35 34 34 35 35 35 34 35 36 34 31 32 36 38 38 40 43 43 40 38 38 37 36 35 35 34 34 32 30
26 27 28 29 29 29 29 29 29 30 31 32 32 33 34 34 34 35 35 35 35 36 36 36 36 37 37 37 38 38 38 38 38 38 39 39 39 39 38 39 39 40 40 41 39 35 35 37 38 37 38 39 38 39 39 37 37 36 34 34 36 36 35 35 36 36 35 34 36 39 38 39 43 45 42 40 39 37 36 36 36 36 36 34 32
27 29 29 30 30 30 30 30 31 32 33 33 34 34 35 35 35 36 36 36 36 36 37 36 37 37 37 37 38 38 39 39 40 40 40 41 42 41 41 41 41 42 42 42 42 39 35 36 38 38 38 39 39 39 39 39 39 37 34 34 36 37 37 35 36 37 37 36 35 37 37 36 39 45 47 44 40 38 37 37 38 38 37 35 34
29 30 30 30 31 31 31 32 33 34 34 34 35 36 36 36 36 37 37 37 37 37 37 37 37 37 37 38 38 38 39 40 41 42 42 43 43 43 43 43 43 43 43 42 43 42 38 36 38 39 39 40 39 38 38 39 40 38 35 34 35 36 36 36 36 37 38 38 36 36 35 35 37 42 48 49 43 40 40 41 41 40 39 38 36
30 30 31 31 32 32 33 34 35 36 36 36 36 37 37 37 37 37 37 37 37 37 37 38 38 38 39 39 40 40 41 41 42 43 44 44 45 45 44 44 44 43 43 44 43 43 41 38 38 39 40 40 39 38 38 39 41 39 36 34 34 35 36 36 36 37 38 39 39 38 37 37 38 40 46 50 47 44 44 43 43 42 40 39 38
30 31 31 32 33 34 34 36 37 38 39 38 38 38 38 38 37 37 37 37 37 37 37 38 39 39 40 41 41 42 43 43 44 44 45 46 46 46 45 45 45 44 44 44 44 45 44 42 40 40 41 41 40 39 39 40 41 40 38 36 35 35 36 36 35 37 38 39 40 40 39 40 41 41 45 51 51 48 47 46 45 43 41 40 39
31 31 32 34 35 35 36 37 39 40 41 40 39 39 38 38 38 38 38 38 38 38 38 39 40 41 42 43 43 44 44 45 45 46 46 47 47 47 47 47 47 46 46 46 46 47 46 45 43 42 42 42 41 40 41 41 42 41 39 37 36 35 36 36 34 36 38 38 40 41 41 42 44 45 48 52 53 51 49 47 46 43 41 41 41
31 32 34 35 36 36 38 39 41 42 43 42 40 40 39 39 38 38 38 39 39 40 41 41 42 43 43 45 45 46 46 46 46 47 47 47 48 48 49 49 48 48 48 48 48 48 48 47 46 45 44 43 42 42 41 42 43 42 40 38 36 36 37 36 34 35 37 38 39 40 41 41 44 47 50 52 53 52 50 48 46 43 42 42 41
32 33 35 36 36 38 39 41 43 44 44 42 41 40 40 39 39 39 40 40 41 42 43 43 44 44 44 45 45 46 46 46 46 47 47 47 47 48 49 49 49 49 49 49 49 49 49 48 47 46 46 45 44 43 42 42 44 42 40 40 38 37 38 36 34 34 36 37 39 40 39 40 41 44 47 49 51 51 50 48 46 44 43 43 42
33 34 36 37 38 40 41 43 44 45 44 42 41 41 40 41 41 41 42 42 42 43 43 44 44 45 45 45 45 46 46 47 47 48 48 48 48 48 49 49 50 50 50 50 49 49 49 49 48 48 47 46 45 45 43 43 44 42 40 40 38 38 39 36 34 33 34 36 39 40 38 38 39 40 43 47 48 48 49 48 47 46 45 44 43
34 36 37 39 40 41 43 45 45 45 42 41 41 41 42 42 42 43 43 43 43 43 44 44 45 45 46 46 46 47 47 48 48 49 49 49 50 50 51 51 51 51 51 51 51 51 50 50 49 48 48 47 46 46 45 45 45 44 42 40 38 38 39 37 35 35 34 35 39 39 37 36 38 38 40 44 47 48 49 49 48 47 45 45 44
36 37 39 40 42 43 44 46 45 43 41 41 42 42 42 43 43 43 43 43 43 44 44 45 45 46 46 47 47 48 48 49 50 50 51 51 51 52 52 53 53 52 52 52 53 52 52 51 50 49 48 47 46 47 47 46 46 46 43 41 40 39 38 37 36 36 36 36 37 39 36 34 37 39 40 43 47 50 51 51 50 49 47 46 45
37 39 40 42 43 44 45 45 42 41 41 42 42 43 43 43 43 43 43 43 44 44 44 45 45 46 46 47 47 48 49 50 51 52 52 53 53 54 54 55 55 54 54 54 54 54 53 53 52 51 49 47 46 47 47 46 46 46 44 42 41 41 40 38 37 37 38 36 34 36 37 35 36 40 41 43 47 51 53 53 51 50 49 48 45
38 39 41 42 44 44 43 42 40 41 41 42 42 42 42 42 42 42 43 43 44 44 44 45 45 46 47 47 48 49 50 51 52 52 54 54 55 56 56 56 56 56 55 55 55 54 54 54 53 53 51 49 47 46 47 46 46 46 45 42 42 42 40 39 38 37 37 37 34 34 36 37 37 40 42 43 44 49 52 52 52 52 50 49 46
37 39 41 42 43 42 40 40 40 41 41 41 41 41 41 41 42 42 42 43 43 43 44 45 45 46 47 48 49 49 50 50 51 52 53 54 55 56 56 57 57 57 57 56 56 56 55 54 54 53 53 51 49 47 47 46 46 46 45 43 42 43 41 39 38 37 37 37 35 33 34 36 37 39 43 44 43 44 48 50 51 52 52 50 47
37 38 40 40 39 38 38 39 40 40 40 40 40 40 40 40 41 41 41 42 42 43 44 44 45 46 47 48 48 49 49 50 51 51 52 53 53 54 55 55 56 57 58 58 57 57 56 55 54 53 53 52 50 48 47 46 46 45 44 43 42 43 42 39 37 37 37 37 37 35 33 35 36 38 41 46 45 43 45 48 50 52 52 51 50
37 38 38 37 36 37 38 39 39 39 38 38 38 39 39 39 40 40 41 41 42 42 43 43 44 45 45 46 47 48 49 50 51 51 52 52 52 53 53 53 54 55 55 56 57 57 56 55 54 52 52 51 50 49 47 46 45 44 44 43 42 43 43 40 37 36 36 37 37 36 34 34 36 37 39 46 47 44 44 46 49 52 54 53 51
36 35 34 34 35 36 37 37 37 37 37 37 37 38 38 38 39 39 40 40 41 41 42 42 43 43 44 44 45 46 48 49 50 50 51 51 51 51 50 50 50 50 51 53 54 55 54 54 53 52 51 50 49 48 47 45 44 43 43 42 41 42 43 40 37 35 36 36 37 38 36 34 36 37 39 43 46 45 44 45 46 49 52 52 50
32 31 32 33 34 35 35 35 35 35 36 36 37 37 37 37 38 38 39 39 40 40 41 41 42 42 43 44 44 46 47 48 48 48 49 49 48 47 45 43 42 42 42 44 46 49 50 51 51 50 49 48 47 47 45 44 43 42 41 41 40 41 42 40 37 35 36 36 36 38 38 34 33 36 39 42 45 46 45 44 44 46 48 50 50
29 30 31 32 33 33 34 34 34 34 35 35 36 36 36 36 37 37 38 38 39 39 40 41 41 42 42 43 43 44 45 46 46 47 46 45 43 40 37 34 31 30 29 31 34 38 42 44 45 46 46 45 45 44 43 42 41 40 40 39 38 39 40 39 36 35 35 35 36 38 38 35 33 35 38 40 43 46 47 45 44 45 46 48 50
Wind_Direction
320 320 319 317 311 311 316 318 321 326 328 330 329 327 326 326 324 321 319 318 318 318 318 319 320 322 324 326 326 327 327 324 323 323 324 327 327 324 321 316 312 308 302 294 287 285 287 288 287 286 285 283 281 281 282 282 283 284 283 283 284 285 286 289 292 294 295 294 293 295 300 301 301 301 305 310 308 307 307 305 303 302 301 305 318
317 312 307 304 301 305 313 317 321 329 334 336 335 331 329 328 325 322 319 318 316 315 315 316 319 321 323 324 325 325 325 325 324 324 324 325 327 327 323 320 314 307 302 294 285 281 282 285 285 284 283 282 280 278 279 281 283 284 283 282 281 281 281 282 285 287 287 285 285 290 296 299 298 297 302 309 307 304 303 303 300 297 298 302 312
314 303 296 297 301 304 310 314 318 330 337 339 337 332 329 326 324 322 320 318 316 315 315 317 320 321 323 324 324 324 324 325 324 324 325 324 326 327 323 322 318 311 306 300 288 279 278 282 285 285 284 283 281 279 279 280 282 283 283 282 280 279 278 277 279 280 280 279 280 285 293 295 293 293 300 305 304 301 299 298 294 289 292 296 303
306 298 298 302 303 305 309 310 313 324 335 339 338 333 328 324 323 322 320 318 316 317 319 320 320 321 322 321 322 324 324 325 324 324 324 324 325 326 322 322 323 320 316 311 297 281 275 278 283 284 284 283 282 280 279 279 280 282 282 281 280 278 276 275 274 275 275 275 277 281 288 291 288 288 296 301 300 297 295 292 285 280 285 290 296
304 301 305 307 304 307 308 306 306 313 326 334 335 332 328 323 321 321 319 318 319 319 320 320 319 321 320 317 318 320 321 322 323 322 323 323 324 325 322 321 324 324 321 318 308 288 276 273 277 280 281 282 283 282 280 278 278 280 281 279 279 277 275 274 272 271 271 273 273 277 283 287 284 283 289 296 296 292 289 285 277 273 279 285 288
304 303 306 307 306 308 308 306 303 304 315 323 326 327 325 320 318 318 317 317 319 320 320 319 319 321 319 315 315 317 317 318 320 321 322 323 322 323 322 320 321 323 320 319 315 298 282 274 275 277 277 278 281 282 281 279 278 279 281 280 278 276 275 273 271 270 269 270 270 272 278 282 280 279 283 290 291 288 283 278 274 270 274 280 282
300 301 304 306 305 306 307 307 302 301 305 312 317 320 320 317 314 314 314 316 318 320 322 322 321 320 319 316 315 316 316 317 319 321 323 323 323 321 320 320 320 318 314 315 316 308 293 280 276 277 276 275 278 280 281 281 279 279 280 280 277 275 275 273 270 269 268 268 268 268 273 277 276 275 278 283 284 282 279 275 273 270 270 274 277
296 299 303 304 303 304 304 303 301 299 301 306 310 313 315 312 310 311 313 316 320 323 324 324 322 319 318 316 315 317 318 318 319 320 321 323 323 320 319 319 319 314 311 310 311 311 303 287 278 276 276 275 276 277 278 280 280 279 279 279 278 275 274 273 270 268 268 267 266 266 268 271 272 271 272 275 274 275 274 273 274 271 268 267 271
295 298 301 302 302 302 301 300 299 298 299 302 304 306 309 306 306 309 311 317 321 323 323 322 319 317 316 316 317 320 319 319 321 319 320 322 322 321 318 318 315 312 311 309 307 306 304 295 283 276 276 275 275 276 276 276 277 280 281 279 277 276 274 273 271 267 266 267 266 264 265 267 268 268 269 268 264 267 270 270 271 272 268 263 263
295 298 300 301 301 301 299 298 297 297 297 297 298 301 302 302 303 306 310 316 320 322 321 320 318 317 316 316 317 318 317 320 323 322 322 323 323 323 320 317 315 312 311 310 309 304 301 300 294 283 278 275 275 275 275 274 273 276 280 280 276 274 273 272 270 268 265 266 266 264 262 263 265 265 266 264 258 258 263 267 269 270 269 263 256
294 298 301 302 302 302 299 298 296 294 294 293 296 298 298 300 301 303 308 314 319 320 320 320 320 319 317 316 315 314 315 320 322 324 325 326 327 327 324 321 319 315 312 310 309 305 300 300 299 294 286 280 277 275 274 274 273 273 276 279 276 272 271 271 269 267 265 264 264 264 263 261 261 262 263 262 256 253 255 261 265 267 268 264 254
293 299 301 303 303 302 300 297 295 293 292 293 294 296 296 297 298 300 306 312 316 318 319 321 321 320 317 316 316 314 316 319 322 325 328 329 331 330 329 327 325 321 316 311 308 304 301 300 298 297 294 290 285 280 276 273 272 272 273 275 275 272 269 268 268 267 265 264 263 263 263 261 259 259 261 260 255 252 252 255 260 263 265 264 255
294 299 300 303 302 301 300 297 295 293 293 294 294 294 294 293 293 297 304 309 313 316 319 321 322 321 318 317 315 313 315 318 321 326 329 330 332 332 331 331 329 326 322 318 313 308 305 304 301 299 295 292 290 287 283 278 274 271 270 271 273 271 267 265 265 266 266 265 262 261 261 260 258 257 259 258 253 251 250 251 256 259 261 261 255
297 302 304 307 306 304 302 299 298 297 296 296 296 295 293 291 291 295 302 307 310 314 318 321 323 323 321 318 314 312 314 316 319 324 327 329 331 332 332 331 330 328 326 323 320 316 311 309 307 303 297 293 292 291 289 286 281 275 269 267 269 269 266 263 261 263 265 265 262 259 258 258 256 255 257 256 253 249 248 248 252 256 258 258 253
303 308 311 312 310 307 306 303 301 301 301 300 298 296 293 290 290 293 299 303 307 311 315 318 322 324 323 321 317 315 315 316 317 320 323 325 327 329 329 330 329 326 325 323 322 320 317 313 310 306 302 298 295 293 290 287 288 285 274 265 263 266 265 262 260 260 261 262 261 258 257 257 255 253 254 255 252 248 247 247 249 252 255 257 253
309 314 316 315 312 309 307 304 302 302 301 300 299 297 293 290 289 292 296 300 304 308 311 314 317 321 323 322 321 319 317 317 317 318 321 323 324 325 325 327 326 325 323 322 321 319 318 316 314 311 307 301 296 293 290 287 287 289 284 269 260 261 263 262 260 259 259 259 258 257 255 255 255 253 251 252 251 247 245 245 247 250 253 255 253
311 314 315 314 312 310 308 305 303 302 301 300 298 297 294 290 289 291 294 298 302 305 308 311 312 315 318 320 322 321 320 319 318 320 322 322 323 323 323 325 324 322 323 323 322 319 316 315 315 313 310 304 298 292 289 287 285 286 289 280 266 259 260 261 260 257 256 256 255 254 253 252 253 252 250 249 249 246 244 243 245 247 251 254 253
308 310 312 311 311 310 308 307 305 302 301 300 299 297 294 291 289 290 293 296 299 302 304 307 308 310 312 314 316 318 319 318 318 320 321 320 321 322 322 323 322 320 321 322 322 321 317 314 312 311 310 307 302 295 289 286 284 283 285 286 276 264 258 259 259 256 253 253 253 252 252 251 250 251 250 248 247 246 243 241 242 245 247 251 252
302 305 307 309 310 309 308 306 304 302 302 302 301 300 297 293 291 290 291 294 296 299 301 304 305 306 307 308 309 311 313 314 314 316 317 318 318 319 320 321 320 319 320 321 321 321 320 315 311 309 309 308 305 300 293 287 284 281 280 282 282 273 262 257 257 256 253 251 251 251 252 251 249 250 250 248 246 244 243 241 240 242 244 246 249
298 301 304 307 308 309 309 307 305 303 302 302 302 301 299 296 294 292 293 294 295 297 299 302 303 303 304 305 305 306 307 308 309 309 311 313 315 315 316 318 319 319 319 320 320 321 321 317 313 311 311 310 307 303 297 290 285 281 279 278 279 278 273 264 257 255 254 252 250 250 250 250 248 247 248 248 246 244 242 241 240 240 242 244 246
294 297 300 303 305 306 307 306 305 303 302 301 301 300 300 298 297 296 296 296 296 297 298 300 301 302 302 303 303 302 303 303 304 305 306 307 309 311 312 314 315 317 317 318 319 320 319 316 315 316 317 315 311 305 299 293 286 280 277 276 275 276 277 274 264 257 256 255 251 250 249 248 247 245 245 246 245 244 242 240 239 239 240 242 243
290 292 295 298 301 303 304 304 304 304 302 301 300 300 299 299 298 298 297 297 297 298 298 299 299 300 300 300 301 300 300 300 300 301 302 302 304 306 308 309 312 314 314 315 316 316 316 315 315 317 318 317 314 308 302 298 291 283 278 275 274 275 276 277 271 262 258 258 254 250 248 247 246 245 245 245 244 244 242 240 239 238 239 240 240
288 290 292 295 298 301 303 304 304 304 304 302 301 300 299 299 299 299 299 299 299 299 299 299 299 299 299 299 299 299 299 298 298 298 299 299 300 302 303 305 308 310 310 311 313 313 314 314 313 314 314 313 313 310 305 302 298 289 281 276 274 275 275 276 275 268 260 259 258 253 249 247 247 246 245 244 244 243 242 240 239 238 238 240 240
286 288 290 292 295 298 300 301 303 304 304 303 302 301 299 298 298 298 298 299 299 299 299 300 300 299 299 299 299 299 298 298 298 298 298 298 299 300 301 301 304 304 305 307 309 310 311 311 310 311 311 310 310 311 308 306 304 296 286 280 276 274 274 274 275 271 262 257 258 256 251 246 245 245 245 243 242 243 242 240 238 238 238 239 240
284 286 288 289 292 294 296 298 300 301 303 303 303 302 301 299 298 298 298 298 298 299 299 300 300 300 300 300 300 299 299 299 299 298 298 298 298 299 299 300 301 301 302 303 305 306 307 307 308 308 309 308 308 311 309 306 306 301 291 283 278 275 274 272 272 272 264 256 255 257 254 246 241 243 244 243 242 242 242 241 238 237 238 238 239
282 283 285 287 289 291 292 295 297 299 301 302 302 302 301 300 300 300 300 300 300 300 300 300 300 301 300 300 300 300 299 299 299 299 299 299 299 299 299 298 299 300 299 299 300 302 302 303 304 304 305 307 307 307 307 305 304 303 296 287 280 276 274 270 269 271 267 257 252 255 255 250 244 243 244 243 242 242 241 240 239 237 238 239 239
280 282 284 286 288 289 290 292 294 296 298 299 300 301 301 300 300 301 301 301 302 301 301 301 301 300 300 299 299 298 298 298 298 298 298 298 298 298 298 297 297 297 297 297 297 298 298 300 301 301 302 304 305 303 303 304 302 301 300 293 283 277 274 271 268 268 267 261 253 252 254 253 248 244 242 242 241 242 241 239 238 238 239 239 239
278 281 283 285 287 288 289 290 292 294 296 297 299 299 300 300 300 300 300 300 300 300 301 301 301 300 300 299 298 297 296 295 296 296 295 295 295 295 296 295 295 295 294 294 294 294 295 296 297 298 299 300 301 301 302 304 302 299 301 299 290 279 274 272 267 263 264 264 259 255 256 256 251 246 241 239 239 240 240 240 240 239 238 239 239
279 282 284 286 288 289 290 290 292 294 295 297 297 297 297 298 298 298 299 299 299 298 298 299 299 299 300 299 298 297 296 295 295 294 293 293 293 294 294 294 293 293 292 291 292 291 290 292 293 294 296 296 297 298 300 301 300 297 298 300 295 283 274 270 266 262 261 262 263 263 262 259 254 247 240 237 238 239 239 240 241 240 238 239 239
280 284 286 288 288 289 291 293 295 296 297 297 297 297 297 297 297 297 297 298 298 298 297 297 297 296 297 297 296 296 296 295 295 294 293 292 292 292 293 292 292 292 291 289 288 287 287 288 290 291 292 293 294 296 298 298 298 297 297 299 298 289 277 269 264 262 262 263 263 264 265 263 257 249 240 235 237 238 239 239 240 240 239 238 238
282 285 287 288 289 291 294 297 298 299 299 298 298 298 298 298 297 297 297 297 297 297 296 296 296 295 294 294 293 293 294 294 294 294 293 292 292 291 291 291 291 290 289 288 288 288 287 287 288 288 289 290 292 294 296 297 298 298 296 297 298 294 282 271 266 262 260 261 262 261 264 265 259 248 237 233 235 237 238 239 239 240 240 239 239
283 286 288 290 292 296 298 300 300 301 301 300 298 298 297 297 297 297 297 296 296 296 295 295 294 294 293 292 292 291 292 292 293 293 292 291 291 290 290 289 289 289 288 288 288 289 288 287 287 287 287 288 290 292 293 295 296 295 295 295 297 296 287 273 266 263 257 255 258 258 260 262 257 247 237 233 233 235 236 238 238 239 239 239 239
285 288 290 293 296 300 301 301 302 302 302 301 299 298 298 297 297 297 297 296 296 295 294 294 293 293 292 291 291 290 290 290 290 290 290 290 289 289 288 288 287 287 287 287 287 287 286 287 288 287 286 287 289 290 291 293 294 294 294 293 294 296 291 276 265 261 257 255 255 254 255 258 254 248 242 237 234 235 237 238 238 238 238 238 239
286 288 291 294 298 301 301 302 304 304 303 302 301 300 300 300 299 298 298 297 297 295 294 293 293 292 291 290 290 289 289 288 288 288 287 287 287 287 287 286 286 286 286 287 287 286 284 284 286 286 286 286 287 288 289 290 291 292 292 291 292 294 292 280 266 259 257 257 255 252 252 256 254 249 245 241 238 236 236 237 238 239 238 238 238
284 287 290 295 299 300 300 302 305 306 305 304 303 302 301 300 299 299 298 297 297 295 294 293 293 292 292 291 290 289 288 288 287 287 286 285 285 285 285 285 285 285 285 285 286 286 285 283 283 284 284 284 284 285 286 287 288 290 291 291 290 292 293 284 269 260 257 256 254 252 251 253 254 252 248 244 240 237 234 235 238 239 238 238 237
283 286 291 295 297 298 299 302 304 306 307 306 304 303 301 300 299 298 297 296 295 294 293 293 293 293 292 292 291 290 289 288 287 286 285 284 284 283 283 283 282 282 283 282 283 283 283 282 281 281 282 282 283 284 285 285 286 288 290 291 290 291 294 287 272 262 259 256 253 253 253 253 253 254 252 247 242 239 238 237 238 238 237 237 237
282 286 290 293 295 296 298 301 303 305 307 307 305 303 301 300 299 298 297 295 295 294 293 294 293 293 293 292 291 290 289 288 287 285 284 284 283 282 282 281 280 280 280 280 280 280 281 281 280 280 281 281 283 283 283 283 283 284 286 288 288 289 292 289 275 262 259 257 254 253 254 255 256 255 252 248 242 239 240 239 237 236 236 236 237
282 285 289 291 293 295 298 300 302 304 306 306 304 302 301 300 299 298 297 296 296 296 296 295 295 295 294 293 291 290 289 287 286 285 284 283 282 281 280 279 279 279 278 278 278 278 278 279 279 279 279 279 280 280 280 280 280 282 285 286 285 286 288 288 278 264 258 258 255 253 252 254 256 253 249 245 241 238 239 240 237 235 236 236 236
280 284 287 290 292 295 297 299 302 304 305 304 302 301 301 300 300 299 298 298 298 298 298 297 297 296 294 293 292 291 289 287 285 284 283 282 281 280 280 279 278 278 277 277 277 277 277 277 276 276 276 276 276 276 277 278 278 280 282 284 284 283 284 287 281 266 258 258 255 252 253 255 253 248 243 240 238 237 239 242 241 238 237 237 237
279 282 285 288 291 294 296 299 301 303 304 303 301 301 301 301 300 300 299 299 299 299 299 298 298 296 295 293 292 291 290 288 287 285 283 282 281 280 279 279 278 277 277 276 276 276 276 275 274 274 273 273 274 274 274 274 276 278 279 279 280 281 281 285 283 270 261 259 255 252 256 257 249 243 239 235 235 237 238 241 242 240 239 238 237
278 281 284 287 290 293 295 298 300 302 302 301 301 302 302 302 301 301 301 301 301 300 300 299 298 297 296 294 293 292 290 289 288 287 285 284 282 280 279 278 277 277 276 276 275 274 274 273 273 272 272 271 271 272 271 271 273 276 278 278 279 279 279 281 282 275 266 262 257 256 260 258 246 239 236 233 235 238 238 240 242 242 240 239 238
277 280 283 286 290 292 295 298 300 301 301 301 301 302 302 302 301 301 301 301 301 301 300 299 298 297 297 296 295 294 293 291 290 288 287 286 284 282 280 278 277 276 275 274 273 272 272 271 271 270 270 270 270 270 270 270 270 272 274 277 278 279 279 279 279 276 270 266 262 260 262 256 242 237 236 234 236 239 240 241 242 243 242 241 240
277 280 283 287 290 292 295 298 300 300 300 301 302 302 302 302 301 301 302 301 301 301 300 300 299 299 298 298 297 296 295 294 293 291 290 288 286 284 282 280 278 276 274 272 270 270 269 269 269 269 268 268 268 269 269 269 269 270 270 272 274 276 278 278 279 276 272 267 261 258 260 257 246 241 240 237 235 237 239 241 242 241 241 242 243
277 280 284 287 290 292 295 297 298 299 300 301 302 302 301 301 302 302 302 302 302 302 302 302 302 301 301 301 300 299 298 297 295 294 292 290 288 286 283 281 279 277 275 272 270 268 267 266 266 266 266 266 266 266 267 267 267 269 269 269 270 272 274 276 277 277 276 272 262 255 256 258 254 249 244 239 235 235 237 239 239 239 241 242 243
278 282 284 287 290 293 295 296 297 299 301 301 301 301 301 301 302 303 303 304 304 304 304 304 304 304 303 303 302 301 299 298 296 294 293 290 288 286 284 282 280 278 275 273 271 269 266 264 263 263 263 263 263 263 265 266 266 266 267 268 268 270 272 274 275 275 277 276 270 260 255 255 257 256 248 241 236 234 235 236 237 239 241 242 243
279 282 284 288 291 293 294 296 298 299 300 299 299 300 301 303 304 304 305 305 306 306 306 306 306 306 305 305 304 303 301 300 298 296 294 292 289 287 284 282 279 277 275 272 270 268 267 265 263 262 261 261 261 261 262 263 264 264 265 265 266 267 269 271 273 274 275 277 274 268 259 256 260 259 249 240 236 234 234 235 237 240 242 243 244
279 282 286 290 291 292 295 297 298 298 298 298 299 301 303 304 305 306 307 308 308 308 308 308 308 307 307 307 306 305 304 303 301 300 297 295 293 289 286 283 279 276 273 271 269 267 266 265 263 262 261 260 259 259 260 262 262 263 264 264 264 265 267 269 271 273 273 274 274 272 267 262 262 259 246 236 234 234 233 234 236 239 241 241 242
280 285 288 290 291 294 296 297 297 297 298 299 301 304 305 306 307 308 309 309 309 309 309 309 309 309 309 309 309 308 308 307 306 304 302 300 297 293 289 285 280 276 273 270 268 266 264 264 263 262 261 260 258 257 258 259 261 261 262 263 263 264 266 268 269 270 271 271 272 273 273 268 261 255 244 234 233 235 235 234 235 237 238 239 241
283 286 288 290 293 295 295 295 295 297 299 302 304 306 307 308 309 309 309 309 309 309 309 310 311 311 311 311 311 311 311 311 310 309 307 304 301 296 292 287 283 278 274 271 268 266 264 262 261 261 260 260 259 258 257 257 258 260 260 261 262 263 265 267 268 268 268 269 270 270 272 270 262 254 245 236 235 237 238 237 238 238 239 240 240
283 286 289 292 293 293 293 294 297 299 302 304 305 306 307 308 309 309 309 309 310 311 312 313 314 314 314 315 315 315 315 315 315 314 312 309 305 301 297 293 288 283 278 274 270 266 263 261 260 259 259 259 259 259 258 257 258 258 259 260 260 261 265 267 267 266 265 267 269 269 270 271 265 256 248 241 238 238 239 240 241 240 240 239 238
285 288 290 290 291 292 294 296 299 302 304 305 305 307 308 309 310 310 311 312 313 314 315 316 316 317 317 318 318 319 320 321 321 321 318 315 311 308 305 301 297 292 286 280 275 270 266 263 261 259 257 257 258 259 259 259 259 259 259 260 259 260 264 266 266 265 264 265 268 270 271 271 268 262 255 247 242 239 238 239 241 239 238 240 239
Height
5844 5843 5843 5842 5842 5842 5841 5841 5840 5840 5840 5839 5838 5837 5837 5836 5835 5835 5834 5833 5832 5830 5829 5827 5827 5826 5825 5824 5824 5823 5822 5821 5820 5819 5818 5818 5818 5817 5815 5815 5814 5813 5813 5813 5813 5813 5812 5812 5812 5811 5811 5811 5811 5810 5810 5810 5810 5810 5810 5810 5810 5810 5809 5809 5809 5809 5808 5808 5808 5808 5808 5808 5807 5807 5807 5806 5806 5806 5805 5805 5804 5804 5803 5803 5803
5843 5842 5842 5842 5841 5841 5840 5839 5839 5839 5839 5838 5837 5837 5836 5835 5835 5834 5833 5832 5832 5830 5829 5827 5826 5825 5824 5823 5822 5822 5821 5820 5819 5818 5817 5816 5816 5815 5814 5813 5813 5812 5811 5811 5811 5811 5811 5811 5810 5810 5810 5810 5809 5809 5809 5809 5809 5809 5809 5809 5808 5808 5808 5808 5808 5808 5808 5807 5807 5807 5807 5807 5807 5806 5806 5805 5805 5805 5805 5804 5804 5803 5803 5803 5802
5842 5842 5842 5841 5840 5839 5839 5838 5838 5838 5837 5837 5837 5836 5835 5835 5834 5833 5832 5832 5831 5830 5829 5827 5826 5824 5823 5822 5821 5821 5820 5819 5818 5816 5815 5814 5814 5814 5813 5812 5811 5810 5809 5809 5809 5809 5809 5809 5809 5809 5809 5808 5808 5808 5808 5808 5807 5807 5807 5807 5807 5807 5807 5807 5807 5807 5807 5806 5806 5806 5806 5806 5806 5806 5805 5805 5804 5804 5804 5804 5803 5803 5802 5802 5802
5842 5842 5841 5840 5839 5839 5838 5838 5837 5837 5837 5836 5835 5835 5834 5834 5833 5832 5831 5831 5830 5829 5828 5827 5825 5824 5823 5822 5820 5820 5819 5818 5817 5816 5814 5813 5812 5812 5812 5810 5809 5808 5808 5807 5807 5807 5807 5807 5807 5807 5807 5807 5807 5806 5806 5806 5806 5806 5806 5806 5806 5806 5806 5806 5806 5806 5805 5805 5805 5805 5805 5805 5805 5805 5804 5804 5804 5803 5803 5803 5803 5802 5802 5802 5802
5841 5840 5839 5839 5838 5838 5837 5837 5837 5836 5836 5835 5834 5834 5834 5833 5832 5832 5831 5830 5829 5829 5827 5826 5825 5824 5823 5821 5820 5819 5818 5817 5816 5815 5813 5812 5811 5810 5810 5809 5808 5807 5806 5806 5806 5805 5805 5805 5806 5806 5805 5805 5805 5805 5805 5805 5805 5805 5804 5804 5804 5804 5804 5804 5804 5804 5804 5804 5804 5804 5804 5804 5804 5804 5804 5803 5803 5803 5802 5802 5802 5802 5801 5801 5801
5839 5839 5838 5838 5837 5836 5836 5836 5835 5835 5834 5834 5834 5833 5833 5832 5832 5831 5830 5829 5829 5828 5826 5825 5824 5823 5822 5821 5820 5819 5817 5816 5815 5814 5812 5811 5810 5808 5808 5808 5807 5805 5804 5804 5804 5804 5803 5803 5804 5804 5804 5804 5804 5804 5804 5804 5804 5804 5803 5803 5803 5803 5803 5803 5803 5803 5803 5803 5803 5802 5802 5803 5803 5803 5803 5802 5802 5802 5801 5801 5801 5801 5801 5800 5800
5838 5838 5837 5837 5836 5835 5835 5835 5834 5834 5833 5833 5832 5832 5832 5831 5831 5830 5830 5829 5828 5827 5825 5824 5823 5822 5821 5820 5819 5818 5817 5815 5814 5812 5811 5810 5809 5807 5806 5806 5805 5804 5804 5803 5803 5802 5802 5802 5802 5802 5803 5803 5803 5803 5803 5802 5802 5802 5802 5801 5801 5801 5801 5801 5801 5801 5801 5801 5801 5801 5801 5801 5801 5801 5801 5801 5801 5801 5801 5800 5800 5800 5800 5800 5800
5837 5837 5836 5836 5835 5835 5834 5834 5833 5833 5832 5832 5831 5831 5831 5830 5830 5829 5829 5828 5827 5826 5824 5823 5822 5821 5820 5819 5818 5817 5816 5814 5813 5811 5810 5809 5808 5807 5806 5805 5804 5804 5803 5802 5801 5801 5801 5801 5800 5801 5801 5801 5801 5801 5801 5801 5801 5801 5800 5800 5800 5800 5800 5800 5800 5800 5800 5800 5800 5800 5800 5800 5800 5800 5800 5800 5800 5800 5800 5800 5799 5799 5799 5799 5799
5836 5836 5835 5835 5834 5834 5833 5833 5832 5832 5831 5830 5830 5830 5829 5829 5828 5828 5827 5826 5825 5824 5824 5823 5822 5821 5820 5818 5817 5816 5815 5814 5812 5811 5810 5808 5807 5806 5805 5804 5803 5803 5802 5800 5800 5799 5799 5799 5799 5799 5799 5799 5799 5799 5799 5799 5799 5799 5799 5799 5798 5798 5798 5798 5798 5798 5798 5799 5799 5798 5798 5799 5799 5799 5799 5799 5798 5798 5799 5799 5798 5798 5798 5798 5798
5835 5835 5834 5834 5833 5833 5832 5832 5831 5830 5830 5829 5829 5828 5828 5828 5827 5826 5826 5825 5824 5823 5822 5821 5820 5819 5818 5817 5816 5815 5814 5813 5812 5810 5809 5808 5806 5805 5804 5803 5803 5802 5800 5799 5798 5797 5797 5797 5797 5797 5796 5796 5796 5797 5797 5797 5797 5797 5797 5797 5797 5796 5796 5796 5797 5797 5797 5797 5797 5797 5797 5797 5797 5797 5797 5797 5797 5797 5797 5797 5797 5797 5797 5797 5797
5833 5834 5833 5833 5832 5832 5831 5831 5830 5829 5829 5828 5827 5827 5826 5826 5826 5825 5824 5823 5823 5822 5821 5820 5819 5818 5817 5816 5815 5814 5813 5812 5811 5809 5808 5807 5805 5804 5803 5802 5801 5800 5799 5797 5797 5796 5795 5795 5795 5794 5794 5794 5794 5794 5794 5794 5795 5795 5795 5795 5795 5795 5794 5795 5795 5795 5795 5795 5796 5796 5796 5796 5796 5796 5796 5796 5796 5796 5796 5796 5796 5796 5796 5796 5796
5832 5832 5832 5831 5831 5830 5830 5829 5829 5828 5827 5827 5826 5826 5825 5824 5824 5823 5823 5822 5821 5821 5820 5819 5817 5816 5815 5814 5813 5812 5811 5810 5809 5807 5806 5805 5804 5803 5802 5801 5800 5799 5797 5796 5795 5794 5793 5793 5793 5792 5792 5792 5792 5792 5792 5792 5792 5792 5793 5793 5793 5793 5792 5793 5793 5793 5793 5794 5794 5794 5794 5794 5794 5794 5795 5795 5794 5794 5795 5795 5795 5795 5795 5795 5795
5831 5831 5831 5830 5830 5829 5829 5828 5827 5827 5826 5826 5825 5824 5824 5823 5822 5822 5822 5821 5820 5819 5818 5817 5816 5815 5814 5813 5812 5811 5809 5808 5807 5805 5804 5804 5803 5802 5800 5799 5798 5797 5796 5795 5793 5792 5791 5791 5791 5790 5790 5790 5789 5789 5789 5789 5789 5789 5790 5790 5790 5790 5790 5790 5791 5792 5792 5792 5792 5792 5792 5792 5792 5793 5793 5793 5793 5793 5793 5793 5794 5794 5794 5794 5794
5830 5829 5829 5829 5828 5828 5827 5826 5826 5825 5825 5824 5824 5823 5822 5822 5821 5821 5820 5820 5819 5818 5817 5816 5814 5813 5812 5811 5810 5809 5808 5806 5805 5804 5803 5802 5802 5801 5800 5798 5797 5796 5794 5793 5792 5790 5789 5788 5788 5788 5788 5788 5787 5786 5786 5786 5786 5786 5786 5787 5787 5788 5788 5788 5788 5789 5790 5790 5790 5790 5790 5790 5790 5791 5791 5792 5792 5792 5792 5792 5792 5792 5792 5792 5793
5828 5828 5827 5827 5826 5826 5825 5825 5824 5823 5823 5823 5822 5822 5821 5820 5820 5819 5819 5818 5818 5817 5816 5814 5813 5812 5811 5809 5808 5807 5806 5805 5804 5803 5802 5801 5800 5799 5798 5797 5796 5795 5793 5792 5791 5790 5788 5786 5785 5785 5785 5784 5784 5784 5783 5783 5783 5783 5783 5783 5784 5784 5785 5785 5786 5786 5787 5788 5788 5788 5788 5788 5788 5789 5789 5790 5790 5790 5790 5790 5790 5791 5791 5791 5791
5826 5826 5826 5825 5825 5824 5824 5823 5823 5822 5822 5821 5821 5820 5820 5819 5819 5818 5817 5817 5816 5815 5814 5813 5811 5810 5809 5808 5806 5805 5804 5803 5802 5801 5800 5799 5798 5797 5796 5796 5795 5794 5793 5791 5790 5788 5787 5785 5784 5783 5782 5782 5781 5781 5780 5780 5780 5779 5779 5780 5780 5781 5782 5782 5783 5784 5784 5785 5785 5785 5786 5786 5786 5786 5787 5788 5788 5788 5788 5788 5789 5789 5789 5789 5790
5825 5825 5824 5824 5823 5822 5822 5822 5821 5821 5820 5820 5819 5819 5819 5818 5817 5817 5816 5815 5814 5813 5812 5811 5810 5809 5808 5806 5805 5804 5802 5800 5799 5798 5797 5796 5796 5795 5794 5793 5793 5792 5791 5790 5788 5787 5785 5784 5783 5781 5780 5780 5779 5778 5778 5777 5777 5776 5776 5776 5777 5777 5778 5779 5779 5780 5781 5782 5782 5783 5783 5783 5784 5784 5784 5785 5786 5786 5786 5787 5787 5787 5787 5788 5788
5823 5823 5823 5822 5822 5821 5821 5821 5820 5819 5819 5819 5818 5818 5817 5817 5816 5815 5814 5814 5813 5811 5810 5810 5808 5807 5806 5805 5804 5802 5801 5799 5798 5796 5795 5794 5793 5793 5792 5791 5791 5790 5789 5788 5787 5785 5784 5782 5781 5779 5778 5777 5776 5775 5775 5774 5774 5774 5773 5773 5773 5774 5775 5775 5776 5777 5778 5778 5779 5780 5780 5781 5781 5782 5782 5783 5783 5784 5784 5785 5785 5785 5786 5786 5786
5822 5822 5822 5821 5821 5821 5820 5819 5819 5818 5818 5817 5816 5816 5815 5815 5814 5813 5813 5812 5811 5810 5808 5807 5806 5805 5804 5803 5802 5801 5799 5798 5796 5795 5794 5792 5791 5790 5789 5789 5788 5787 5786 5786 5785 5784 5782 5780 5778 5777 5776 5775 5773 5772 5771 5771 5771 5771 5770 5769 5770 5771 5771 5772 5772 5773 5774 5775 5776 5777 5778 5778 5779 5779 5779 5780 5781 5781 5782 5783 5783 5784 5784 5784 5784
5820 5820 5820 5820 5820 5819 5819 5818 5817 5817 5816 5815 5815 5814 5813 5813 5812 5811 5811 5810 5809 5808 5807 5805 5804 5803 5802 5801 5800 5799 5797 5796 5795 5793 5792 5791 5789 5788 5787 5786 5785 5784 5783 5782 5781 5781 5779 5778 5776 5775 5773 5772 5771 5770 5769 5768 5768 5768 5767 5767 5766 5767 5768 5768 5769 5770 5770 5771 5772 5773 5774 5775 5776 5776 5777 5777 5778 5779 5780 5780 5781 5782 5782 5782 5783
5819 5819 5819 5818 5818 5818 5817 5817 5816 5815 5814 5814 5813 5812 5811 5811 5810 5809 5808 5807 5807 5806 5804 5803 5802 5801 5799 5798 5797 5796 5795 5794 5793 5791 5790 5789 5788 5787 5785 5784 5783 5782 5780 5779 5778 5778 5776 5775 5774 5773 5771 5769 5768 5767 5766 5765 5764 5764 5764 5764 5763 5763 5765 5765 5765 5766 5767 5768 5769 5770 5771 5772 5773 5773 5774 5775 5775 5776 5777 5778 5778 5779 5780 5780 5781
5817 5817 5817 5817 5816 5816 5815 5815 5814 5813 5813 5812 5811 5810 5809 5808 5808 5807 5806 5805 5804 5803 5802 5801 5800 5798 5797 5796 5795 5793 5792 5791 5790 5789 5788 5787 5786 5785 5783 5782 5781 5779 5778 5777 5776 5775 5774 5772 5771 5770 5768 5767 5766 5764 5763 5762 5761 5760 5761 5761 5760 5759 5761 5762 5762 5763 5764 5764 5765 5766 5767 5768 5769 5770 5771 5772 5773 5773 5774 5775 5776 5777 5778 5778 5779
5816 5815 5815 5815 5814 5814 5813 5813 5812 5811 5810 5810 5809 5808 5807 5806 5805 5804 5803 5802 5801 5800 5799 5798 5797 5796 5794 5793 5792 5791 5789 5788 5787 5786 5785 5784 5783 5783 5781 5780 5779 5777 5775 5774 5774 5772 5771 5769 5768 5767 5766 5765 5763 5761 5760 5759 5758 5757 5757 5757 5757 5756 5756 5758 5759 5759 5760 5761 5762 5763 5764 5765 5766 5767 5768 5769 5769 5771 5772 5772 5773 5774 5775 5775 5776
5814 5814 5813 5813 5812 5812 5811 5811 5810 5809 5808 5807 5806 5805 5805 5804 5803 5802 5801 5799 5798 5797 5796 5795 5794 5793 5792 5790 5789 5788 5787 5785 5785 5783 5782 5781 5780 5780 5779 5777 5777 5776 5773 5772 5771 5769 5768 5767 5765 5764 5763 5762 5760 5759 5757 5756 5755 5754 5753 5754 5754 5753 5753 5754 5755 5756 5757 5757 5758 5759 5761 5762 5762 5762 5764 5765 5766 5767 5769 5770 5770 5771 5772 5773 5773
5812 5812 5811 5811 5810 5810 5809 5809 5808 5807 5806 5805 5804 5803 5802 5801 5800 5799 5798 5797 5796 5794 5793 5792 5791 5789 5789 5787 5786 5785 5784 5782 5782 5781 5779 5778 5777 5777 5776 5775 5774 5773 5771 5769 5767 5766 5765 5764 5763 5761 5760 5759 5758 5756 5754 5753 5752 5750 5749 5750 5750 5750 5750 5750 5752 5752 5753 5754 5755 5756 5757 5758 5758 5758 5760 5761 5763 5764 5765 5766 5767 5768 5769 5769 5770
5810 5810 5809 5809 5808 5808 5807 5806 5805 5804 5803 5802 5801 5800 5799 5798 5797 5796 5795 5794 5793 5791 5790 5789 5787 5786 5785 5784 5783 5782 5780 5779 5778 5777 5776 5775 5774 5773 5772 5772 5771 5770 5769 5767 5765 5763 5762 5761 5760 5758 5757 5756 5755 5753 5751 5749 5748 5747 5746 5746 5747 5747 5746 5747 5748 5749 5749 5750 5751 5752 5753 5754 5754 5755 5756 5758 5759 5760 5761 5763 5764 5765 5765 5766 5767
5808 5808 5807 5807 5806 5805 5805 5804 5803 5802 5801 5800 5799 5798 5797 5795 5794 5793 5792 5791 5789 5788 5787 5785 5784 5783 5781 5780 5779 5778 5777 5775 5775 5774 5773 5771 5771 5770 5768 5768 5767 5767 5765 5764 5763 5760 5758 5757 5756 5755 5754 5753 5751 5749 5747 5746 5745 5744 5743 5742 5743 5743 5743 5743 5744 5745 5746 5746 5747 5748 5748 5750 5751 5751 5753 5754 5756 5756 5757 5759 5760 5761 5762 5763 5764
5806 5806 5805 5805 5804 5803 5802 5801 5800 5799 5798 5797 5796 5795 5794 5792 5791 5790 5789 5787 5786 5785 5783 5782 5780 5779 5778 5776 5775 5774 5773 5772 5771 5770 5769 5767 5766 5765 5764 5763 5763 5763 5762 5761 5760 5757 5755 5753 5752 5751 5750 5749 5747 5745 5744 5743 5742 5741 5740 5739 5739 5739 5739 5739 5740 5741 5741 5742 5743 5743 5744 5745 5747 5747 5748 5750 5751 5752 5754 5755 5757 5758 5759 5760 5761
5804 5803 5803 5802 5801 5800 5799 5798 5797 5796 5795 5794 5793 5792 5791 5789 5788 5787 5786 5784 5783 5781 5780 5779 5777 5776 5774 5772 5771 5770 5769 5768 5767 5766 5765 5763 5762 5761 5760 5759 5758 5758 5757 5756 5756 5754 5750 5750 5748 5746 5745 5744 5743 5741 5741 5741 5740 5738 5737 5736 5735 5735 5735 5735 5736 5737 5737 5738 5738 5739 5740 5741 5742 5743 5744 5746 5747 5748 5749 5751 5752 5754 5755 5757 5757
5801 5801 5800 5799 5799 5798 5797 5796 5795 5793 5792 5791 5790 5789 5788 5786 5785 5784 5783 5781 5780 5778 5777 5775 5774 5772 5771 5769 5767 5766 5765 5764 5763 5762 5761 5759 5758 5757 5756 5755 5753 5753 5752 5751 5752 5750 5747 5746 5745 5743 5741 5739 5738 5737 5737 5736 5735 5734 5733 5733 5732 5731 5731 5731 5731 5732 5733 5733 5733 5734 5735 5735 5736 5738 5740 5742 5743 5744 5745 5747 5748 5750 5751 5753 5754
5798 5798 5797 5796 5796 5795 5794 5793 5792 5791 5790 5788 5787 5786 5784 5783 5782 5780 5779 5777 5776 5774 5773 5771 5770 5768 5767 5766 5764 5762 5761 5760 5759 5758 5756 5755 5754 5753 5752 5750 5749 5748 5747 5745 5746 5747 5743 5741 5741 5739 5737 5735 5734 5732 5732 5731 5731 5730 5729 5729 5728 5727 5726 5726 5726 5727 5729 5729 5729 5729 5730 5730 5731 5732 5735 5737 5738 5739 5741 5742 5744 5746 5747 5749 5750
5796 5795 5794 5793 5793 5792 5791 5790 5789 5788 5787 5785 5784 5782 5781 5780 5778 5777 5775 5774 5772 5771 5769 5768 5766 5764 5763 5761 5760 5758 5757 5756 5755 5753 5752 5750 5750 5749 5748 5746 5744 5743 5741 5740 5741 5743 5740 5737 5737 5736 5733 5732 5731 5729 5728 5727 5726 5725 5725 5724 5723 5722 5722 5722 5721 5722 5724 5725 5725 5725 5726 5726 5726 5727 5730 5732 5733 5734 5736 5738 5740 5742 5743 5744 5746
5793 5792 5791 5790 5789 5789 5788 5787 5786 5785 5783 5782 5780 5779 5777 5776 5774 5773 5771 5770 5768 5767 5765 5763 5762 5760 5759 5757 5756 5754 5753 5752 5750 5749 5748 5746 5744 5744 5743 5742 5740 5738 5736 5734 5735 5738 5737 5733 5731 5731 5729 5728 5728 5726 5725 5724 5722 5721 5721 5719 5718 5717 5717 5717 5717 5717 5718 5720 5721 5720 5720 5721 5722 5723 5725 5726 5728 5729 5731 5733 5735 5737 5739 5740 5742
5790 5789 5788 5787 5787 5786 5785 5784 5783 5781 5780 5778 5777 5775 5773 5772 5770 5769 5767 5766 5764 5762 5760 5759 5757 5756 5754 5752 5751 5750 5748 5747 5745 5744 5743 5742 5740 5739 5738 5737 5735 5734 5732 5730 5728 5730 5732 5730 5727 5726 5725 5724 5724 5722 5721 5719 5718 5717 5716 5715 5713 5712 5712 5712 5712 5713 5713 5714 5715 5715 5715 5717 5718 5719 5720 5721 5723 5725 5727 5728 5730 5732 5734 5735 5737
5787 5786 5785 5784 5784 5783 5782 5780 5779 5778 5776 5775 5773 5772 5770 5768 5766 5765 5763 5761 5760 5758 5756 5754 5752 5751 5749 5748 5746 5745 5744 5742 5741 5739 5738 5736 5735 5734 5733 5731 5730 5729 5727 5726 5723 5722 5725 5726 5723 5720 5720 5719 5718 5718 5716 5714 5713 5712 5712 5711 5709 5708 5708 5707 5707 5708 5708 5709 5710 5710 5711 5713 5713 5714 5715 5716 5719 5721 5722 5723 5725 5727 5729 5731 5733
5784 5783 5782 5781 5780 5779 5778 5777 5776 5774 5773 5771 5770 5768 5766 5764 5763 5761 5759 5757 5755 5753 5752 5750 5748 5746 5744 5743 5741 5740 5739 5737 5736 5734 5732 5731 5729 5728 5727 5726 5724 5724 5722 5720 5718 5716 5717 5719 5718 5715 5714 5713 5713 5713 5711 5710 5708 5707 5707 5707 5705 5704 5704 5703 5702 5702 5702 5703 5705 5706 5707 5708 5709 5710 5711 5712 5714 5716 5717 5719 5721 5722 5724 5726 5728
5781 5780 5779 5778 5777 5776 5775 5774 5773 5771 5769 5768 5766 5764 5762 5760 5758 5756 5755 5753 5751 5749 5747 5745 5743 5741 5739 5738 5736 5735 5734 5732 5730 5729 5727 5725 5724 5722 5721 5720 5718 5717 5716 5715 5713 5711 5710 5711 5712 5710 5708 5708 5708 5707 5706 5704 5703 5702 5702 5702 5701 5700 5699 5698 5698 5697 5697 5698 5700 5701 5702 5702 5703 5705 5706 5706 5709 5711 5712 5714 5714 5716 5719 5722 5723
5778 5777 5776 5775 5774 5773 5772 5771 5769 5768 5766 5764 5762 5760 5758 5756 5754 5752 5750 5748 5746 5744 5742 5740 5738 5737 5734 5732 5731 5729 5728 5727 5725 5723 5721 5720 5718 5716 5715 5714 5712 5711 5710 5709 5707 5705 5704 5704 5705 5704 5703 5702 5702 5701 5700 5699 5697 5696 5697 5697 5696 5695 5694 5693 5693 5693 5692 5693 5694 5695 5697 5697 5698 5699 5700 5701 5703 5705 5707 5708 5709 5710 5713 5716 5718
5774 5773 5772 5772 5771 5770 5769 5767 5766 5764 5762 5760 5758 5756 5754 5752 5749 5747 5745 5743 5741 5739 5737 5735 5733 5731 5729 5727 5725 5723 5722 5721 5719 5717 5715 5714 5712 5710 5708 5707 5706 5704 5703 5702 5701 5699 5698 5698 5698 5698 5697 5697 5696 5695 5695 5693 5691 5691 5692 5691 5691 5690 5689 5689 5689 5688 5688 5688 5689 5690 5691 5692 5692 5693 5694 5695 5697 5700 5702 5703 5705 5706 5708 5711 5713
5771 5770 5769 5768 5767 5766 5765 5764 5762 5760 5758 5755 5753 5751 5749 5747 5745 5743 5741 5739 5736 5734 5732 5729 5727 5725 5723 5721 5719 5717 5715 5714 5712 5711 5709 5707 5706 5704 5702 5700 5699 5698 5697 5695 5694 5693 5692 5691 5691 5691 5691 5691 5690 5689 5689 5688 5686 5686 5686 5685 5685 5685 5684 5684 5684 5684 5684 5684 5684 5685 5686 5686 5686 5686 5688 5690 5692 5694 5696 5698 5701 5702 5703 5705 5708
5767 5766 5766 5765 5764 5763 5761 5760 5758 5756 5753 5751 5749 5747 5744 5742 5740 5738 5736 5733 5731 5729 5726 5724 5722 5719 5717 5715 5713 5711 5709 5707 5705 5703 5701 5700 5699 5697 5695 5693 5692 5690 5689 5688 5687 5686 5685 5684 5684 5684 5684 5684 5683 5682 5682 5681 5680 5680 5680 5680 5680 5679 5678 5679 5680 5679 5679 5679 5679 5679 5680 5681 5681 5682 5683 5685 5687 5689 5691 5694 5696 5698 5699 5701 5703
5764 5763 5762 5761 5760 5759 5757 5755 5753 5751 5749 5747 5745 5742 5740 5738 5736 5733 5731 5728 5726 5723 5721 5719 5716 5714 5711 5709 5707 5704 5702 5700 5697 5695 5694 5692 5690 5689 5687 5685 5684 5683 5682 5680 5679 5678 5677 5677 5677 5676 5676 5677 5677 5675 5675 5675 5674 5674 5675 5674 5674 5674 5673 5674 5675 5674 5674 5674 5674 5675 5675 5675 5676 5677 5679 5681 5683 5685 5687 5689 5691 5694 5695 5696 5698
5760 5759 5758 5757 5756 5754 5753 5751 5749 5746 5744 5742 5740 5738 5736 5733 5731 5728 5726 5723 5721 5718 5716 5713 5710 5708 5705 5703 5700 5697 5695 5692 5690 5687 5685 5683 5682 5680 5678 5677 5675 5674 5673 5672 5671 5670 5669 5669 5669 5669 5669 5670 5670 5669 5668 5668 5667 5667 5668 5669 5669 5669 5668 5669 5669 5669 5669 5669 5668 5669 5670 5670 5671 5673 5674 5676 5678 5680 5681 5684 5687 5689 5690 5691 5693
5756 5755 5754 5753 5752 5750 5748 5746 5744 5742 5740 5738 5735 5733 5731 5728 5726 5723 5721 5718 5715 5713 5710 5707 5704 5702 5699 5696 5693 5691 5688 5685 5682 5679 5677 5675 5673 5670 5669 5668 5666 5665 5664 5663 5662 5662 5661 5661 5661 5661 5661 5662 5663 5662 5661 5662 5661 5661 5662 5663 5663 5663 5663 5663 5664 5664 5663 5663 5662 5663 5665 5666 5667 5668 5669 5671 5673 5675 5676 5679 5681 5683 5684 5686 5687
5752 5751 5750 5749 5747 5746 5744 5742 5740 5737 5735 5733 5731 5729 5726 5724 5721 5718 5716 5713 5710 5707 5705 5702 5699 5696 5693 5690 5687 5684 5681 5678 5675 5672 5669 5666 5664 5661 5659 5658 5657 5655 5654 5653 5653 5652 5652 5652 5653 5653 5653 5653 5655 5655 5654 5654 5655 5655 5656 5657 5657 5657 5657 5658 5658 5658 5658 5657 5657 5658 5659 5660 5661 5662 5664 5666 5668 5670 5672 5674 5676 5678 5679 5680 5682
5748 5747 5746 5745 5743 5741 5740 5737 5735 5733 5731 5729 5727 5724 5722 5719 5716 5713 5711 5708 5705 5702 5699 5696 5693 5690 5687 5683 5680 5677 5674 5670 5667 5664 5661 5658 5655 5652 5650 5648 5647 5645 5644 5643 5643 5643 5643 5643 5644 5644 5644 5645 5647 5647 5647 5647 5648 5649 5650 5651 5651 5651 5652 5652 5653 5653 5653 5653 5653 5653 5653 5655 5656 5656 5658 5660 5663 5664 5667 5669 5671 5673 5674 5676 5677
5744 5743 5742 5740 5739 5737 5735 5733 5731 5729 5727 5725 5722 5719 5717 5714 5712 5709 5706 5703 5700 5697 5694 5691 5687 5684 5681 5677 5674 5670 5667 5663 5660 5656 5653 5649 5646 5643 5640 5638 5636 5635 5634 5633 5633 5633 5633 5634 5635 5636 5636 5637 5639 5640 5640 5640 5641 5642 5643 5645 5645 5645 5646 5647 5648 5648 5648 5649 5648 5648 5648 5650 5650 5650 5651 5653 5656 5658 5661 5663 5666 5667 5669 5671 5672
5740 5739 5737 5736 5734 5733 5731 5729 5727 5725 5723 5720 5718 5715 5712 5710 5707 5704 5701 5698 5695 5692 5689 5686 5682 5679 5675 5672 5668 5664 5660 5656 5652 5648 5644 5641 5637 5634 5630 5628 5625 5624 5623 5623 5622 5623 5624 5625 5626 5627 5628 5629 5630 5632 5633 5634 5634 5635 5636 5638 5639 5639 5639 5641 5643 5643 5643 5643 5643 5643 5643 5643 5644 5644 5645 5647 5650 5652 5654 5657 5660 5662 5663 5665 5667
5736 5735 5733 5732 5730 5729 5727 5725 5723 5721 5718 5716 5713 5711 5708 5705 5703 5700 5697 5694 5691 5688 5684 5681 5678 5674 5671 5667 5663 5659 5654 5650 5645 5641 5636 5632 5628 5624 5621 5618 5615 5614 5613 5613 5612 5613 5614 5616 5617 5618 5620 5621 5622 5624 5626 5627 5628 5629 5630 5631 5632 5633 5633 5635 5637 5637 5637 5638 5638 5638 5637 5637 5638 5639 5640 5642 5645 5647 5649 5651 5654 5656 5658 5660 5662
5732 5730 5729 5728 5726 5725 5723 5721 5719 5717 5714 5712 5709 5707 5704 5701 5699 5696 5693 5690 5686 5683 5680 5676 5673 5669 5666 5662 5658 5653 5649 5644 5639 5634 5629 5624 5619 5615 5612 5609 5607 5605 5605 5604 5604 5604 5605 5607 5608 5610 5612 5614 5615 5617 5619 5620 5621 5623 5624 5625 5626 5627 5627 5629 5631 5631 5632 5632 5632 5632 5632 5633 5633 5634 5635 5637 5639 5641 5644 5646 5648 5650 5652 5654 5655
5728 5726 5725 5724 5723 5721 5719 5717 5715 5713 5710 5708 5706 5703 5700 5698 5695 5692 5688 5685 5682 5678 5675 5671 5668 5664 5661 5657 5653 5648 5643 5638 5633 5628 5623 5618 5613 5609 5606 5603 5601 5599 5599 5598 5597 5597 5598 5599 5601 5603 5605 5607 5609 5610 5612 5614 5615 5616 5618 5619 5620 5621 5621 5623 5624 5625 5626 5627 5627 5626 5627 5628 5628 5629 5630 5631 5633 5635 5638 5640 5642 5644 5646 5648 5650